Regional Weather Roundup
Issued by NWS

Home | Current Version | Previous Version | Graphics & Text | Print | Product List | Glossary On
Versions: 1 2 3 4 5 6 7 8 9 10 11 12 13 14 15 16 17 18 19 20 21 22 23 24 25 26 27 28 29 30 31 32 33 34 35 36 37 38 39 40 41 42 43 44 45 46 47 48 49 50
000
ASUS45 KSLC 240610
RWRUT

UTAH REGIONAL WEATHER ROUNDUP
NATIONAL WEATHER SERVICE SALT LAKE CITY UT
1100 PM MST THU FEB 23 2017

UTZ001>011-023>025-240700-

NORTHERN UTAH

CITY           SKY/WX    TMP DP  RH WIND       PRES   REMARKS
BRIGHAM CITY     N/A     28  23  83 N7        29.91R WCI  21
HILL AFB       LGT SNOW  23  21  93 NW5       29.88S FOG     WCI  17
LOGAN          LGT SNOW  28  24  85 SW5       29.89R FOG     WCI  23
OGDEN          LGT SNOW  25  23  92 W3        29.89R FOG
SALT LAKE CITY FLURRIES  28  23  81 N9        29.91R WCI  19
TOOELE VALLEY  MOCLDY    28  21  74 NW5       29.92S WCI  23
WENDOVER       CLOUDY    28   9  43 NW23G30   29.92R WCI  14
HEBER CITY     CLOUDY    18  12  79 CALM      29.83R
WEST JORDAN    CLOUDY    31  27  86 NW7       29.91R WCI  24

$$

UTZ011>015-024>027-240700-

CENTRAL/NORTHEAST UTAH

CITY           SKY/WX    TMP DP  RH WIND       PRES   REMARKS
PROVO AIRPORT  FLURRIES  27  21  80 N12       29.91S WCI  16
MOAB/CANYONLAN MOCLDY    31  15  52 W8        29.80S WCI  23
DELTA          CLOUDY    27  27 100 MISG      29.91R VSB<1/4
PRICE          PTCLDY    24  12  60 W6        29.79S WCI  17
ROOSEVELT      LGT SNOW  28  25  86 CALM      29.82R
VERNAL         CLOUDY    23  21  92 NE3       29.79S

$$

UTZ013>016-019>022-027-240700-

SOUTHERN UTAH

CITY           SKY/WX    TMP DP  RH WIND       PRES   REMARKS
BRYCE CANYON   PTCLDY    14   8  77 W8        29.82S WCI   3
CEDAR CITY     MOCLDY    24  16  71 SW5       29.87R WCI  18
MILFORD        CLOUDY    24  21  88 CALM      29.90R
ST GEORGE      MOCLDY    41  19  41 W3        29.93S
HANKSVILLE     MOCLDY    32   9  37 CALM      29.86R
BLANDING       CLOUDY    28  16  59 N9        29.88R WCI  20

$$

REGIONAL REPORTS     COLORADO/ARIZONA

CITY           SKY/WX    TMP DP  RH WIND       PRES   REMARKS
CRAIG, CO      CLOUDY    22  17  81 W6        29.75R WCI  14
GRAND JUNCTION CLOUDY    27  25  92 E5        29.80S WCI  22
RIFLE, CO      LGT SNOW  26  24  92 E6        29.79R FOG     WCI  19
MONTROSE, CO   CLOUDY    22  12  65 S7        29.81S WCI  13
CORTEZ, CO     PTCLDY    22  15  75 CALM      29.80S
COLORADO CITY    N/A     32  18  55 CALM      29.93S
PAGE, AZ       CLOUDY    38   7  27 W5        29.88S WCI  34
GRAND CANYON   CLEAR     24   7  48 W5        29.90R WCI  18
KINGMAN, AZ    CLEAR     32   3  29 S5        29.97R WCI  27
FLAGSTAFF, AZ  CLEAR     24   5  44 W5        29.90R WCI  18

$$

REGIONAL REPORTS    NEVADA/IDAHO/WYOMING

CITY           SKY/WX    TMP DP  RH WIND       PRES   REMARKS
LAS VEGAS, NV  PTCLDY    48   5  17 NW7       29.97R
ELY, NY        PTCLDY    14   5  67 W7        29.91R WCI   4
ELKO, NV       MOCLDY    22  15  75 S5        29.96R WCI  16
POCATELLO, ID  CLOUDY    24  20  84 SW17      29.87R WCI  11
BURLEY, ID     FLURRIES  27  19  72 W21G30    29.88R WCI  13
FORT BRIDGER,  LGT SNOW  19  19 100 CALM      29.80S
EVANSTON, WY   LGT SNOW  17  13  84 W8        29.77R VSB 1   WCI   7
ROCK SPRINGS,  LGT SNOW  18  13  80 N9        29.76S WCI   7

$$



USA.gov is the U.S. government's official web portal to all federal, state and local government web resources and services.